Tracking 29799 objects as of 11-Oct-2024
HD Live streaming from Space Station
objects crossing your sky now

FENGYUN 1C DEB

Track FENGYUN 1C DEB now!
10-day predictions


NORAD ID: 30357
Int'l Code: 1999-025ABU
Perigee: 847.1 km
Apogee: 920.7 km
Inclination: 98.9 °
Period: 102.5 minutes
Semi major axis: 7254 km
RCS: 0.042 m2 (small)
Launch date: May 10, 1999
Source: People's Republic of China (PRC)
Launch site: Taiyaun Space Center, China (TSC)

Note: This is SATELLITE DEBRIS
Your satellite tracking list
Your tracking list is empty




NASA's NSSDC Master Catalog

Two Line Element Set (TLE):
1 30357U 99025ABU 24284.10039907  .00001169  00000-0  74499-3 0  9995
2 30357  98.8567 316.6606 0050691  90.0655 292.0039 14.04931309907877
Source of the keplerian elements: AFSPC